Regional Weather Roundup
Issued by NWS Memphis, TN

Home | Current Version | Previous Version | Text Only | Print | Product List | Glossary On
Versions: 1 2 3 4 5 6 7 8 9 10 11 12 13 14 15 16 17 18 19 20 21 22 23 24 25 26 27 28 29 30 31 32 33 34 35 36 37 38 39 40 41 42 43 44 45 46 47 48 49 50
000
ASUS44 KMEG 251310
RWRMEG
MEMPHIS CWA HOURLY WEATHER ROUNDUP
NATIONAL WEATHER SERVICE MEMPHIS TN
800 AM CDT SAT OCT 25 2014

...WEST TENNESSEE...

CITY           SKY/WX    TMP DP  RH WIND       PRES   REMARKS
MEMPHIS INTL   PTCLDY    58  54  86 CALM      30.10R
NWS MEMPHIS      N/A     54 N/A N/A MISG        N/A
JACKSON        CLEAR     55  52  89 S3        30.09S
LEXINGTON      MOCLDY    48  46  93 CALM      30.09R
SAVANNAH       CLOUDY    48  48 100 CALM      30.11R VSB 3/4
DYERSBURG      CLEAR     52  43  71 CALM      30.09R
UNION CITY     PTCLDY    52  52 100 S3        30.05F
PARIS          MOCLDY    55  52  88 S5        30.07S
HUNTINGDON     CLOUDY    54  51  89 CALM      30.08S


...EASTERN ARKANSAS...

CITY           SKY/WX    TMP DP  RH WIND       PRES   REMARKS
JONESBORO      CLEAR     58  56  93 SW6       30.07S
WEST MEMPHIS   CLEAR     58  56  93 SW7       30.09R
BATESVILLE     CLEAR     61  57  88 CALM      30.07S
NEWPORT        CLEAR     56  55  96 S6        30.09S FOG
WALNUT RIDGE   CLEAR     54  50  87 S5        30.06S
BLYTHEVILLE    CLEAR     58  55  90 SW7       30.07S
SEARCY         CLEAR     52  52 100 CALM      30.11S FOG
STUTTGART      CLEAR     57  54  88 SW3       30.12R
PINE BLUFF     CLEAR     56  53  90 SW6       30.12S
MONTICELLO     CLEAR     58  54  86 W7        30.13R


...NORTH MISSISSIPPI...

CITY           SKY/WX    TMP DP  RH WIND       PRES   REMARKS
TUPELO         CLEAR     50  47  89 CALM      30.11S
OXFORD         CLEAR     48  48 100 CALM      30.13S
OLIVE BRANCH   PTCLDY    54  54 100 SW5       30.11R
TUNICA         CLEAR     52  52 100 S5        30.12R FOG
CLARKSDALE     CLEAR     55  55 100 S3        30.12S
CORINTH        CLEAR     50  48  93 CALM      30.10S
GRENADA          N/A    N/A N/A N/A MISG        N/A
GREENWOOD      CLEAR     50  48  93 CALM      30.14R
COLUMBUS       CLEAR     47  46  97 CALM      30.14R
STARKVILLE     FAIR      46  46 100 CALM      30.13S FOG
GOLDEN TRIANGL CLEAR     48  43  81 CALM      30.13R


...SOUTHEAST MISSOURI...

CITY           SKY/WX    TMP DP  RH WIND       PRES   REMARKS
WEST PLAINS    CLEAR     58  56  93 W7        30.08S FOG
POPLAR BLUFF   CLEAR     56  53  90 SW3       30.05R FOG
CAPE GIRARDEAU CLEAR     54  52  93 CALM      30.04S FOG


...NORTHWEST ALABAMA...

CITY           SKY/WX    TMP DP  RH WIND       PRES   REMARKS
MUSCLE SHOALS  CLEAR     47  44  90 CALM      30.13S


...MIDDLE TENNESSEE...

CITY           SKY/WX    TMP DP  RH WIND       PRES   REMARKS
NASHVILLE      MOSUNNY   47  46  97 CALM      30.10S
CLARKSVILLE    MOCLDY    52  50  93 S3        30.07R FOG
COLUMBIA       CLEAR    N/A N/A N/A CALM      30.09R


...WESTERN KENTUCKY...

CITY           SKY/WX    TMP DP  RH WIND       PRES   REMARKS
PADUCAH        PTCLDY    56  53  90 CALM      30.04R FOG
FORT CAMPBELL  MOCLDY    55  55 100 SW5       30.06S


...CENTRAL ARKANSAS...

CITY           SKY/WX    TMP DP  RH WIND       PRES   REMARKS
LITTLE ROCK    CLEAR     59  55  87 SW6       30.11S


SKY/WX REPORTED AS FAIR MEANS FEW OR NO CLOUDS BELOW
12 THOUSAND FEET.




USA.gov is the U.S. government's official web portal to all federal, state and local government web resources and services.